START_TIME,STEP,MOV.,E45,t_acc.,ALAR?,t_acc.,A12,t_acc.,A24,t_acc.
1981-08-26 07:01:39.200 ,0,0,0.,4.8,0.,4.8,0.,4.8,0.,4.8
1981-08-26 07:01:44.000 ,0,0,0.,4.8,0.,4.8,0.,4.8,0.,4.8
1981-08-26 07:01:48.800 ,0,0,0.,4.8,0.,4.8,0.,4.8,0.,4.8
1981-08-26 07:01:53.600 ,0,0,0.,4.8,0.,4.8,0.,4.8,0.,4.8
1981-08-26 07:01:58.400 ,0,0,0.,4.8,0.,4.8,0.,4.8,0.,4.8
1981-08-26 07:02:03.200 ,1,0,0.,4.8,0.,4.8,0.,4.8,0.,4.8
1981-08-26 07:02:08.000 ,1,0,0.,4.8,0.,4.8,0.,4.8,0.,4.8
1981-08-26 07:02:12.800 ,1,0,0.,4.8,0.,4.8,0.,4.8,0.,4.8
1981-08-26 07:02:17.600 ,1,0,0.,4.8,0.,4.8,0.,4.8,0.,4.8
1981-08-26 07:02:22.400 ,1,0,0.,4.8,0.,4.8,0.,4.8,0.,4.8
1981-08-26 07:02:27.200 ,2,0,0.,4.8,0.,4.8,0.,4.8,0.,4.8
1981-08-26 07:02:32.000 ,2,0,0.,4.8,0.,4.8,0.,4.8,0.,4.8
1981-08-26 07:02:36.800 ,2,0,0.,4.8,0.,4.8,0.,4.8,0.,4.8
1981-08-26 07:02:41.600 ,2,0,0.,4.8,0.,4.8,0.,4.8,0.,4.8
1981-08-26 07:02:46.400 ,2,0,0.,4.8,0.,4.8,0.,4.8,0.,4.8
1981-08-26 07:02:51.200 ,3,0,0.,4.8,0.,4.8,0.,4.8,0.,4.8
1981-08-26 07:02:56.000 ,3,0,0.,4.8,0.,4.8,0.,4.8,0.,4.8
1981-08-26 07:03:00.800 ,3,0,0.,4.8,0.,4.8,0.,4.8,0.,4.8
1981-08-26 07:03:05.600 ,3,0,0.,4.8,0.,4.8,0.,4.8,0.,4.8
1981-08-26 07:03:10.400 ,3,0,0.,4.8,0.,4.8,0.,4.8,0.,4.8
1981-08-26 07:03:15.200 ,4,0,0.,4.8,1600.,4.8,0.,4.8,0.,4.8
1981-08-26 07:03:20.000 ,4,0,0.,4.8,3008.,4.8,0.,4.8,0.,4.8
1981-08-26 07:03:24.800 ,4,0,0.,4.8,3712.,4.8,0.,4.8,0.,4.8
1981-08-26 07:03:29.600 ,4,0,0.,4.8,3456.,4.8,0.,4.8,0.,4.8
1981-08-26 07:03:34.400 ,4,0,0.,4.8,3584.,4.8,0.,4.8,0.,4.8
1981-08-26 07:03:39.200 ,5,0,0.,4.8,3520.,4.8,0.,4.8,0.,4.8
1981-08-26 07:03:44.000 ,5,0,0.,4.8,3456.,4.8,0.,4.8,0.,4.8
1981-08-26 07:03:48.800 ,5,0,0.,4.8,3456.,4.8,0.,4.8,0.,4.8
1981-08-26 07:03:53.600 ,5,0,0.,4.8,3456.,4.8,0.,4.8,0.,4.8
1981-08-26 07:03:58.400 ,5,0,0.,4.8,3456.,4.8,0.,4.8,0.,4.8
1981-08-26 07:04:03.200 ,6,0,0.,4.8,3456.,4.8,0.,4.8,0.,4.8
1981-08-26 07:04:08.000 ,6,0,0.,4.8,3968.,4.8,0.,4.8,0.,4.8
1981-08-26 07:04:12.800 ,6,0,0.,4.8,504.,4.8,0.,4.8,0.,4.8
1981-08-26 07:04:17.600 ,6,0,0.,4.8,264.,4.8,0.,4.8,0.,4.8
1981-08-26 07:04:22.400 ,6,0,0.,4.8,408.,4.8,0.,4.8,0.,4.8
1981-08-26 07:04:27.200 ,0,0,0.,4.8,408.,4.8,0.,4.8,0.,4.8
1981-08-26 07:04:32.000 ,0,0,0.,4.8,264.,4.8,0.,4.8,0.,4.8
1981-08-26 07:04:36.800 ,0,0,0.,4.8,70.,4.8,0.,4.8,0.,4.8
1981-08-26 07:04:41.600 ,0,0,0.,4.8,118.,4.8,0.,4.8,0.,4.8
1981-08-26 07:04:46.400 ,0,0,0.,4.8,3968.,4.8,0.,4.8,0.,4.8
1981-08-26 07:05:17.600 ,0,0,0.,4.8,3968.,4.8,0.,4.8,0.,4.8
1981-08-26 07:05:22.400 ,0,0,0.,4.8,16.,4.8,0.,4.8,0.,4.8
1981-08-26 07:05:27.200 ,0,0,0.,4.8,140.,4.8,0.,4.8,0.,4.8
1981-08-26 07:05:32.000 ,0,0,0.,4.8,66.,4.8,0.,4.8,0.,4.8
1981-08-26 07:05:36.800 ,0,0,0.,4.8,128.,4.8,0.,4.8,0.,4.8
1981-08-26 07:05:39.200 ,5,0,0.,4.8,4032.,4.8,0.,4.8,0.,4.8
1981-08-26 07:05:44.000 ,5,0,0.,4.8,3584.,4.8,0.,4.8,0.,4.8
1981-08-26 07:05:48.800 ,5,0,0.,4.8,3200.,4.8,0.,4.8,0.,4.8
1981-08-26 07:05:53.600 ,5,0,0.,4.8,3264.,4.8,0.,4.8,0.,4.8
1981-08-26 07:05:58.400 ,5,0,0.,4.8,3328.,4.8,0.,4.8,0.,4.8
1981-08-26 07:06:03.200 ,4,0,0.,4.8,3264.,4.8,0.,4.8,0.,4.8
1981-08-26 07:06:08.000 ,4,0,0.,4.8,3264.,4.8,0.,4.8,0.,4.8
1981-08-26 07:06:12.800 ,4,0,0.,4.8,3200.,4.8,0.,4.8,0.,4.8
1981-08-26 07:06:17.600 ,4,0,0.,4.8,3136.,4.8,0.,4.8,0.,4.8
1981-08-26 07:06:22.400 ,4,0,0.,4.8,3136.,4.8,0.,4.8,0.,4.8
1981-08-26 07:06:27.200 ,3,0,0.,4.8,3072.,4.8,0.,4.8,0.,4.8
1981-08-26 07:06:32.000 ,3,0,0.,4.8,2496.,4.8,0.,4.8,0.,4.8
1981-08-26 07:06:36.800 ,3,0,0.,4.8,1952.,4.8,0.,4.8,0.,4.8
1981-08-26 07:06:41.600 ,3,0,0.,4.8,1920.,4.8,0.,4.8,0.,4.8
1981-08-26 07:06:46.400 ,3,0,0.,4.8,1952.,4.8,0.,4.8,0.,4.8
1981-08-26 07:06:51.200 ,2,0,0.,4.8,1920.,4.8,0.,4.8,0.,4.8
1981-08-26 07:06:56.000 ,2,0,0.,4.8,2816.,4.8,0.,4.8,0.,4.8
1981-08-26 07:07:00.800 ,2,0,0.,4.8,3392.,4.8,0.,4.8,0.,4.8
1981-08-26 07:07:05.600 ,2,0,0.,4.8,3520.,4.8,0.,4.8,0.,4.8
1981-08-26 07:07:10.400 ,2,0,0.,4.8,3648.,4.8,0.,4.8,0.,4.8
1981-08-26 07:07:15.200 ,1,0,0.,4.8,3520.,4.8,0.,4.8,0.,4.8
1981-08-26 07:07:20.000 ,1,0,0.,4.8,3200.,4.8,0.,4.8,0.,4.8
1981-08-26 07:07:24.800 ,1,0,0.,4.8,2880.,4.8,0.,4.8,0.,4.8
1981-08-26 07:07:29.600 ,1,0,0.,4.8,2880.,4.8,0.,4.8,0.,4.8
1981-08-26 07:07:34.400 ,1,0,0.,4.8,3008.,4.8,0.,4.8,0.,4.8
1981-08-26 07:07:39.200 ,0,0,0.,4.8,2944.,4.8,0.,4.8,0.,4.8
1981-08-26 07:07:44.000 ,0,0,0.,4.8,3136.,4.8,0.,4.8,0.,4.8
1981-08-26 07:07:48.800 ,0,0,0.,4.8,3328.,4.8,0.,4.8,0.,4.8
1981-08-26 07:07:53.600 ,0,0,0.,4.8,3264.,4.8,0.,4.8,0.,4.8
1981-08-26 07:07:58.400 ,0,0,0.,4.8,3264.,4.8,0.,4.8,0.,4.8
1981-08-26 07:08:03.200 ,0,0,0.,4.8,2944.,4.8,0.,4.8,0.,4.8
1981-08-26 07:08:08.000 ,0,0,0.,4.8,3072.,4.8,0.,4.8,0.,4.8
1981-08-26 07:08:12.800 ,0,0,0.,4.8,3008.,4.8,0.,4.8,0.,4.8
1981-08-26 07:08:17.600 ,0,0,0.,4.8,3136.,4.8,0.,4.8,0.,4.8
1981-08-26 07:08:22.400 ,0,0,0.,4.8,3072.,4.8,0.,4.8,0.,4.8
1981-08-26 07:08:27.200 ,1,0,0.,4.8,3200.,4.8,0.,4.8,0.,4.8
1981-08-26 07:08:32.000 ,1,0,0.,4.8,2880.,4.8,0.,4.8,0.,4.8
1981-08-26 07:08:36.800 ,1,0,0.,4.8,2688.,4.8,0.,4.8,0.,4.8
1981-08-26 07:08:41.600 ,1,0,0.,4.8,2624.,4.8,0.,4.8,0.,4.8
1981-08-26 07:08:46.400 ,1,0,0.,4.8,2688.,4.8,0.,4.8,0.,4.8
1981-08-26 07:08:51.200 ,2,0,0.,4.8,2752.,4.8,0.,4.8,0.,4.8
1981-08-26 07:08:56.000 ,2,0,0.,4.8,2688.,4.8,0.,4.8,0.,4.8
1981-08-26 07:09:00.800 ,2,0,0.,4.8,3008.,4.8,0.,4.8,0.,4.8
1981-08-26 07:09:05.600 ,2,0,0.,4.8,3136.,4.8,0.,4.8,0.,4.8
1981-08-26 07:09:10.400 ,2,0,0.,4.8,3136.,4.8,0.,4.8,0.,4.8
1981-08-26 07:09:15.200 ,3,0,0.,4.8,2944.,4.8,0.,4.8,0.,4.8
1981-08-26 07:09:20.000 ,3,0,0.,4.8,2304.,4.8,0.,4.8,0.,4.8
1981-08-26 07:09:24.800 ,3,0,0.,4.8,1664.,4.8,0.,4.8,0.,4.8
1981-08-26 07:09:29.600 ,3,0,0.,4.8,1664.,4.8,0.,4.8,0.,4.8
1981-08-26 07:09:34.400 ,3,0,0.,4.8,1632.,4.8,0.,4.8,0.,4.8
1981-08-26 07:09:39.200 ,4,0,0.,4.8,1600.,4.8,0.,4.8,0.,4.8
1981-08-26 07:09:44.000 ,4,0,0.,4.8,2048.,4.8,0.,4.8,0.,4.8
1981-08-26 07:09:48.800 ,4,0,0.,4.8,2560.,4.8,0.,4.8,0.,4.8
1981-08-26 07:09:53.600 ,4,0,0.,4.8,2496.,4.8,0.,4.8,0.,4.8
1981-08-26 07:09:58.400 ,4,0,0.,4.8,2496.,4.8,0.,4.8,0.,4.8
1981-08-26 07:10:03.200 ,5,0,0.,4.8,2496.,4.8,0.,4.8,0.,4.8
1981-08-26 07:10:08.000 ,5,0,0.,4.8,2496.,4.8,0.,4.8,0.,4.8
1981-08-26 07:10:12.800 ,5,0,0.,4.8,2560.,4.8,0.,4.8,0.,4.8
1981-08-26 07:10:17.600 ,5,0,0.,4.8,2496.,4.8,0.,4.8,0.,4.8
1981-08-26 07:10:22.400 ,5,0,0.,4.8,2496.,4.8,0.,4.8,0.,4.8
1981-08-26 07:10:27.200 ,6,0,0.,4.8,2432.,4.8,0.,4.8,0.,4.8
1981-08-26 07:10:32.000 ,6,0,0.,4.8,2752.,4.8,0.,4.8,0.,4.8
1981-08-26 07:10:36.800 ,6,0,0.,4.8,3136.,4.8,0.,4.8,0.,4.8
1981-08-26 07:10:41.600 ,6,0,0.,4.8,3136.,4.8,0.,4.8,0.,4.8
1981-08-26 07:10:46.400 ,6,0,0.,4.8,3008.,4.8,0.,4.8,0.,4.8
1981-08-26 07:10:51.200 ,7,0,0.,4.8,3072.,4.8,0.,4.8,0.,4.8
1981-08-26 07:10:56.000 ,7,0,0.,4.8,3008.,4.8,0.,4.8,0.,4.8
1981-08-26 07:11:00.800 ,7,0,0.,4.8,2880.,4.8,0.,4.8,0.,4.8
1981-08-26 07:11:05.600 ,7,0,0.,4.8,2880.,4.8,0.,4.8,0.,4.8
1981-08-26 07:11:10.400 ,7,0,0.,4.8,2944.,4.8,0.,4.8,0.,4.8
1981-08-26 07:11:15.200 ,7,0,0.,4.8,2944.,4.8,0.,4.8,0.,4.8
1981-08-26 07:11:20.000 ,7,0,0.,4.8,3008.,4.8,0.,4.8,0.,4.8
1981-08-26 07:11:24.800 ,7,0,0.,4.8,2816.,4.8,0.,4.8,0.,4.8
1981-08-26 07:11:29.600 ,7,0,0.,4.8,2688.,4.8,0.,4.8,0.,4.8
1981-08-26 07:11:34.400 ,7,0,0.,4.8,2624.,4.8,0.,4.8,0.,4.8
1981-08-26 07:11:39.200 ,6,0,0.,4.8,2688.,4.8,0.,4.8,0.,4.8
1981-08-26 07:11:44.000 ,6,0,0.,4.8,2688.,4.8,0.,4.8,0.,4.8
1981-08-26 07:11:48.800 ,6,0,0.,4.8,3008.,4.8,0.,4.8,0.,4.8
1981-08-26 07:11:53.600 ,6,0,0.,4.8,2944.,4.8,0.,4.8,0.,4.8
1981-08-26 07:11:58.400 ,6,0,0.,4.8,2752.,4.8,0.,4.8,0.,4.8
1981-08-26 07:12:03.200 ,5,0,0.,4.8,2752.,4.8,0.,4.8,0.,4.8
1981-08-26 07:12:08.000 ,5,0,0.,4.8,2560.,4.8,0.,4.8,0.,4.8
1981-08-26 07:12:12.800 ,5,0,0.,4.8,2368.,4.8,0.,4.8,0.,4.8
1981-08-26 07:12:17.600 ,5,0,0.,4.8,2368.,4.8,0.,4.8,0.,4.8
1981-08-26 07:12:22.400 ,5,0,0.,4.8,2240.,4.8,0.,4.8,0.,4.8
1981-08-26 07:12:27.200 ,4,0,0.,4.8,2240.,4.8,0.,4.8,0.,4.8
1981-08-26 07:12:32.000 ,4,0,0.,4.8,2176.,4.8,0.,4.8,0.,4.8
1981-08-26 07:12:36.800 ,4,0,0.,4.8,2048.,4.8,0.,4.8,0.,4.8
1981-08-26 07:12:41.600 ,4,0,0.,4.8,2240.,4.8,0.,4.8,0.,4.8
1981-08-26 07:12:46.400 ,4,0,0.,4.8,2048.,4.8,0.,4.8,0.,4.8
1981-08-26 07:12:51.200 ,3,0,0.,4.8,2016.,4.8,0.,4.8,0.,4.8
1981-08-26 07:12:56.000 ,3,0,0.,4.8,1696.,4.8,0.,4.8,0.,4.8
1981-08-26 07:13:00.800 ,3,0,0.,4.8,1280.,4.8,0.,4.8,0.,4.8
1981-08-26 07:13:05.600 ,3,0,0.,4.8,1312.,4.8,0.,4.8,0.,4.8
1981-08-26 07:13:10.400 ,3,0,0.,4.8,1344.,4.8,0.,4.8,0.,4.8
1981-08-26 07:13:15.200 ,2,0,0.,4.8,1376.,4.8,0.,4.8,0.,4.8
1981-08-26 07:13:20.000 ,2,0,0.,4.8,1824.,4.8,0.,4.8,0.,4.8
1981-08-26 07:13:24.800 ,2,0,0.,4.8,2368.,4.8,0.,4.8,0.,4.8
1981-08-26 07:13:29.600 ,2,0,0.,4.8,2304.,4.8,0.,4.8,0.,4.8
1981-08-26 07:13:34.400 ,2,0,0.,4.8,2240.,4.8,0.,4.8,0.,4.8
1981-08-26 07:13:39.200 ,1,0,0.,4.8,2304.,4.8,0.,4.8,0.,4.8
1981-08-26 07:13:44.000 ,1,0,0.,4.8,2112.,4.8,0.,4.8,0.,4.8
1981-08-26 07:13:48.800 ,1,0,0.,4.8,2016.,4.8,0.,4.8,0.,4.8
1981-08-26 07:13:53.600 ,1,0,0.,4.8,1984.,4.8,0.,4.8,0.,4.8
1981-08-26 07:13:58.400 ,1,0,0.,4.8,2048.,4.8,0.,4.8,0.,4.8
1981-08-26 07:14:03.200 ,0,0,0.,4.8,2048.,4.8,0.,4.8,0.,4.8
1981-08-26 07:14:08.000 ,0,0,0.,4.8,2048.,4.8,0.,4.8,0.,4.8
1981-08-26 07:14:12.800 ,0,0,0.,4.8,2304.,4.8,0.,4.8,0.,4.8
1981-08-26 07:14:17.600 ,0,0,0.,4.8,2240.,4.8,0.,4.8,0.,4.8
1981-08-26 07:14:22.400 ,0,0,0.,4.8,2112.,4.8,0.,4.8,0.,4.8
1981-08-26 07:14:27.200 ,0,0,0.,4.8,2176.,4.8,0.,4.8,0.,4.8
1981-08-26 07:14:32.000 ,0,0,0.,4.8,2240.,4.8,0.,4.8,0.,4.8
1981-08-26 07:14:36.800 ,0,0,0.,4.8,2112.,4.8,0.,4.8,0.,4.8
1981-08-26 07:14:41.600 ,0,0,0.,4.8,2240.,4.8,0.,4.8,0.,4.8
1981-08-26 07:14:46.400 ,0,0,0.,4.8,2176.,4.8,0.,4.8,0.,4.8
1981-08-26 07:14:51.200 ,1,0,0.,4.8,2176.,4.8,0.,4.8,0.,4.8
1981-08-26 07:14:56.000 ,1,0,0.,4.8,2048.,4.8,0.,4.8,0.,4.8
1981-08-26 07:15:00.800 ,1,0,0.,4.8,1920.,4.8,0.,4.8,0.,4.8
1981-08-26 07:15:05.600 ,1,0,0.,4.8,1824.,4.8,0.,4.8,0.,4.8
1981-08-26 07:15:10.400 ,1,0,0.,4.8,1856.,4.8,0.,4.8,0.,4.8
1981-08-26 07:15:15.200 ,2,0,0.,4.8,1856.,4.8,0.,4.8,0.,4.8
1981-08-26 07:15:20.000 ,2,0,0.,4.8,1920.,4.8,0.,4.8,0.,4.8
1981-08-26 07:15:24.800 ,2,0,0.,4.8,2112.,4.8,0.,4.8,0.,4.8
1981-08-26 07:15:29.600 ,2,0,0.,4.8,2048.,4.8,0.,4.8,0.,4.8
1981-08-26 07:15:34.400 ,2,0,0.,4.8,2112.,4.8,0.,4.8,0.,4.8
1981-08-26 07:15:39.200 ,3,0,0.,4.8,2048.,4.8,0.,4.8,0.,4.8
1981-08-26 07:15:44.000 ,3,0,0.,4.8,1632.,4.8,0.,4.8,0.,4.8
1981-08-26 07:15:48.800 ,3,0,0.,4.8,1184.,4.8,0.,4.8,0.,4.8
1981-08-26 07:15:53.600 ,3,0,0.,4.8,1184.,4.8,0.,4.8,0.,4.8
1981-08-26 07:15:58.400 ,3,0,0.,4.8,1184.,4.8,0.,4.8,0.,4.8
1981-08-26 07:16:03.200 ,4,0,0.,4.8,1152.,4.8,0.,4.8,0.,4.8
1981-08-26 07:16:08.000 ,4,0,0.,4.8,1376.,4.8,0.,4.8,0.,4.8
1981-08-26 07:16:12.800 ,4,0,0.,4.8,1760.,4.8,0.,4.8,0.,4.8
1981-08-26 07:16:17.600 ,4,0,0.,4.8,1728.,4.8,0.,4.8,0.,4.8
1981-08-26 07:16:22.400 ,4,0,0.,4.8,1696.,4.8,0.,4.8,0.,4.8
1981-08-26 07:16:27.200 ,5,0,0.,4.8,1664.,4.8,0.,4.8,0.,4.8
1981-08-26 07:16:32.000 ,5,0,0.,4.8,1632.,4.8,0.,4.8,0.,4.8
1981-08-26 07:16:36.800 ,5,0,0.,4.8,1728.,4.8,0.,4.8,0.,4.8
1981-08-26 07:16:41.600 ,5,0,0.,4.8,1696.,4.8,0.,4.8,0.,4.8
1981-08-26 07:16:46.400 ,5,0,0.,4.8,1696.,4.8,0.,4.8,0.,4.8
1981-08-26 07:16:51.200 ,6,0,0.,4.8,1760.,4.8,0.,4.8,0.,4.8
1981-08-26 07:16:56.000 ,6,0,0.,4.8,1920.,4.8,0.,4.8,0.,4.8
1981-08-26 07:17:00.800 ,6,0,0.,4.8,2112.,4.8,0.,4.8,0.,4.8
1981-08-26 07:17:05.600 ,6,0,0.,4.8,2112.,4.8,0.,4.8,0.,4.8
1981-08-26 07:17:10.400 ,6,0,0.,4.8,2048.,4.8,0.,4.8,0.,4.8
1981-08-26 07:17:15.200 ,7,0,0.,4.8,2016.,4.8,0.,4.8,0.,4.8
1981-08-26 07:17:20.000 ,7,0,0.,4.8,2016.,4.8,0.,4.8,0.,4.8
1981-08-26 07:17:24.800 ,7,0,0.,4.8,1888.,4.8,0.,4.8,0.,4.8
1981-08-26 07:17:29.600 ,7,0,0.,4.8,1792.,4.8,0.,4.8,0.,4.8
1981-08-26 07:17:34.400 ,7,0,0.,4.8,1888.,4.8,0.,4.8,0.,4.8
1981-08-26 07:17:39.200 ,7,0,0.,4.8,1824.,4.8,0.,4.8,0.,4.8
1981-08-26 07:17:44.000 ,7,0,0.,4.8,1888.,4.8,0.,4.8,0.,4.8
1981-08-26 07:17:48.800 ,7,0,0.,4.8,1824.,4.8,0.,4.8,0.,4.8
1981-08-26 07:17:53.600 ,7,0,0.,4.8,1920.,4.8,0.,4.8,0.,4.8
1981-08-26 07:17:58.400 ,7,0,0.,4.8,1888.,4.8,0.,4.8,0.,4.8
1981-08-26 07:18:03.200 ,6,0,0.,4.8,1856.,4.8,0.,4.8,0.,4.8
1981-08-26 07:18:08.000 ,6,0,0.,4.8,1856.,4.8,0.,4.8,0.,4.8
1981-08-26 07:18:12.800 ,6,0,0.,4.8,2016.,4.8,0.,4.8,0.,4.8
1981-08-26 07:18:17.600 ,6,0,0.,4.8,1920.,4.8,0.,4.8,0.,4.8
1981-08-26 07:18:22.400 ,6,0,0.,4.8,2112.,4.8,0.,4.8,0.,4.8
1981-08-26 07:18:27.200 ,5,0,0.,4.8,1888.,4.8,0.,4.8,0.,4.8
1981-08-26 07:18:32.000 ,5,0,0.,4.8,1632.,4.8,0.,4.8,0.,4.8
1981-08-26 07:18:36.800 ,5,0,0.,4.8,1504.,4.8,0.,4.8,0.,4.8
1981-08-26 07:18:41.600 ,5,0,0.,4.8,1504.,4.8,0.,4.8,0.,4.8
1981-08-26 07:18:46.400 ,5,0,0.,4.8,1472.,4.8,0.,4.8,0.,4.8
1981-08-26 07:18:51.200 ,4,0,0.,4.8,1504.,4.8,0.,4.8,0.,4.8
1981-08-26 07:18:56.000 ,4,0,0.,4.8,1504.,4.8,0.,4.8,0.,4.8
1981-08-26 07:19:00.800 ,4,0,0.,4.8,1472.,4.8,0.,4.8,0.,4.8
1981-08-26 07:19:05.600 ,4,0,0.,4.8,1408.,4.8,0.,4.8,0.,4.8
1981-08-26 07:19:10.400 ,4,0,0.,4.8,1440.,4.8,0.,4.8,0.,4.8
1981-08-26 07:19:15.200 ,3,0,0.,4.8,1376.,4.8,0.,4.8,0.,4.8
1981-08-26 07:19:20.000 ,3,0,0.,4.8,1184.,4.8,0.,4.8,0.,4.8
1981-08-26 07:19:24.800 ,3,0,0.,4.8,928.,4.8,0.,4.8,0.,4.8
1981-08-26 07:19:29.600 ,3,0,0.,4.8,928.,4.8,0.,4.8,0.,4.8
1981-08-26 07:19:34.400 ,3,0,0.,4.8,896.,4.8,0.,4.8,0.,4.8
1981-08-26 07:19:39.200 ,2,0,0.,4.8,912.,4.8,0.,4.8,0.,4.8
1981-08-26 07:19:44.000 ,2,0,0.,4.8,1216.,4.8,0.,4.8,0.,4.8
1981-08-26 07:19:48.800 ,2,0,0.,4.8,1600.,4.8,0.,4.8,0.,4.8
1981-08-26 07:19:53.600 ,2,0,0.,4.8,1504.,4.8,0.,4.8,0.,4.8
1981-08-26 07:19:58.400 ,2,0,0.,4.8,1600.,4.8,0.,4.8,0.,4.8
1981-08-26 07:20:03.200 ,1,0,0.,4.8,1536.,4.8,0.,4.8,0.,4.8
1981-08-26 07:20:08.000 ,1,0,0.,4.8,1504.,4.8,0.,4.8,0.,4.8
1981-08-26 07:20:12.800 ,1,0,0.,4.8,1344.,4.8,0.,4.8,0.,4.8
1981-08-26 07:20:17.600 ,1,0,0.,4.8,1376.,4.8,0.,4.8,0.,4.8
1981-08-26 07:20:22.400 ,1,0,0.,4.8,1248.,4.8,0.,4.8,0.,4.8
1981-08-26 07:20:27.200 ,0,0,0.,4.8,1280.,4.8,0.,4.8,0.,4.8
1981-08-26 07:20:32.000 ,0,0,0.,4.8,1376.,4.8,0.,4.8,0.,4.8
1981-08-26 07:20:36.800 ,0,0,0.,4.8,1408.,4.8,0.,4.8,0.,4.8
1981-08-26 07:20:41.600 ,0,0,0.,4.8,1536.,4.8,0.,4.8,0.,4.8
1981-08-26 07:20:46.400 ,0,0,0.,4.8,1504.,4.8,0.,4.8,0.,4.8
1981-08-26 07:20:51.200 ,0,0,0.,4.8,1408.,4.8,0.,4.8,0.,4.8
1981-08-26 07:20:56.000 ,0,0,0.,4.8,1440.,4.8,0.,4.8,0.,4.8
1981-08-26 07:21:00.800 ,0,0,0.,4.8,1440.,4.8,0.,4.8,0.,4.8
1981-08-26 07:21:05.600 ,0,0,0.,4.8,1504.,4.8,0.,4.8,0.,4.8
1981-08-26 07:21:10.400 ,0,0,0.,4.8,1408.,4.8,0.,4.8,0.,4.8
1981-08-26 07:21:15.200 ,1,0,0.,4.8,1440.,4.8,0.,4.8,0.,4.8
1981-08-26 07:21:20.000 ,1,0,0.,4.8,1280.,4.8,0.,4.8,0.,4.8
1981-08-26 07:21:24.800 ,1,0,0.,4.8,1312.,4.8,0.,4.8,0.,4.8
1981-08-26 07:21:29.600 ,1,0,0.,4.8,1216.,4.8,0.,4.8,0.,4.8
1981-08-26 07:21:34.400 ,1,0,0.,4.8,1184.,4.8,0.,4.8,0.,4.8
1981-08-26 07:21:39.200 ,2,0,0.,4.8,1216.,4.8,0.,4.8,0.,4.8
1981-08-26 07:21:44.000 ,2,0,0.,4.8,1408.,4.8,0.,4.8,0.,4.8
1981-08-26 07:21:48.800 ,2,0,0.,4.8,1536.,4.8,0.,4.8,0.,4.8
1981-08-26 07:21:53.600 ,2,0,0.,4.8,1408.,4.8,0.,4.8,0.,4.8
1981-08-26 07:21:58.400 ,2,0,0.,4.8,1472.,4.8,0.,4.8,0.,4.8
1981-08-26 07:22:03.200 ,3,0,0.,4.8,1376.,4.8,0.,4.8,0.,4.8
1981-08-26 07:22:08.000 ,3,0,0.,4.8,1120.,4.8,0.,4.8,0.,4.8
1981-08-26 07:22:12.800 ,3,0,0.,4.8,784.,4.8,0.,4.8,0.,4.8
1981-08-26 07:22:17.600 ,3,0,0.,4.8,848.,4.8,0.,4.8,0.,4.8
1981-08-26 07:22:22.400 ,3,0,0.,4.8,896.,4.8,0.,4.8,0.,4.8
1981-08-26 07:22:27.200 ,4,0,0.,4.8,816.,4.8,0.,4.8,0.,4.8
1981-08-26 07:22:32.000 ,4,0,0.,4.8,1056.,4.8,0.,4.8,0.,4.8
1981-08-26 07:22:36.800 ,4,0,0.,4.8,1216.,4.8,0.,4.8,0.,4.8
1981-08-26 07:22:41.600 ,4,0,0.,4.8,1280.,4.8,0.,4.8,0.,4.8
1981-08-26 07:22:46.400 ,4,0,0.,4.8,1216.,4.8,0.,4.8,0.,4.8
1981-08-26 07:22:51.200 ,5,0,0.,4.8,1216.,4.8,0.,4.8,0.,4.8
1981-08-26 07:22:56.000 ,5,0,0.,4.8,1216.,4.8,0.,4.8,0.,4.8
1981-08-26 07:23:00.800 ,5,0,0.,4.8,1248.,4.8,0.,4.8,0.,4.8
1981-08-26 07:23:05.600 ,5,0,0.,4.8,1152.,4.8,0.,4.8,0.,4.8
1981-08-26 07:23:10.400 ,5,0,0.,4.8,1248.,4.8,0.,4.8,0.,4.8
1981-08-26 07:23:15.200 ,6,0,0.,4.8,1152.,4.8,0.,4.8,0.,4.8
1981-08-26 07:23:20.000 ,6,0,0.,4.8,1312.,4.8,0.,4.8,0.,4.8
1981-08-26 07:23:24.800 ,6,0,0.,4.8,1376.,4.8,0.,4.8,0.,4.8
1981-08-26 07:23:29.600 ,6,0,0.,4.8,1408.,4.8,0.,4.8,0.,4.8
1981-08-26 07:23:34.400 ,6,0,0.,4.8,1408.,4.8,0.,4.8,0.,4.8
1981-08-26 07:23:39.200 ,7,0,0.,4.8,1472.,4.8,0.,4.8,0.,4.8
1981-08-26 07:23:44.000 ,7,0,0.,4.8,1312.,4.8,0.,4.8,0.,4.8
1981-08-26 07:23:48.800 ,7,0,0.,4.8,1280.,4.8,0.,4.8,0.,4.8
1981-08-26 07:23:53.600 ,7,0,0.,4.8,1312.,4.8,0.,4.8,0.,4.8
1981-08-26 07:23:58.400 ,7,0,0.,4.8,1312.,4.8,0.,4.8,0.,4.8
1981-08-26 07:24:03.200 ,7,0,0.,4.8,1312.,4.8,0.,4.8,0.,4.8
1981-08-26 07:24:08.000 ,7,0,0.,4.8,1312.,4.8,0.,4.8,0.,4.8
1981-08-26 07:24:12.800 ,7,0,0.,4.8,1216.,4.8,0.,4.8,0.,4.8
1981-08-26 07:24:17.600 ,7,0,0.,4.8,1216.,4.8,0.,4.8,0.,4.8
1981-08-26 07:24:22.400 ,7,0,0.,4.8,1248.,4.8,0.,4.8,0.,4.8
1981-08-26 07:24:27.200 ,6,0,0.,4.8,1280.,4.8,0.,4.8,0.,4.8
1981-08-26 07:24:32.000 ,6,0,0.,4.8,1280.,4.8,0.,4.8,0.,4.8
1981-08-26 07:24:36.800 ,6,0,0.,4.8,1376.,4.8,0.,4.8,0.,4.8
1981-08-26 07:24:41.600 ,6,0,0.,4.8,1376.,4.8,0.,4.8,0.,4.8
1981-08-26 07:24:46.400 ,6,0,0.,4.8,1408.,4.8,0.,4.8,0.,4.8
1981-08-26 07:24:51.200 ,5,0,0.,4.8,1408.,4.8,0.,4.8,0.,4.8
1981-08-26 07:24:56.000 ,5,0,0.,4.8,1248.,4.8,0.,4.8,0.,4.8
1981-08-26 07:25:00.800 ,5,0,0.,4.8,1056.,4.8,0.,4.8,0.,4.8
1981-08-26 07:25:05.600 ,5,0,0.,4.8,1088.,4.8,0.,4.8,0.,4.8
1981-08-26 07:25:10.400 ,5,0,0.,4.8,1120.,4.8,0.,4.8,0.,4.8
1981-08-26 07:25:15.200 ,4,0,0.,4.8,1152.,4.8,0.,4.8,0.,4.8
1981-08-26 07:25:20.000 ,4,0,0.,4.8,1088.,4.8,0.,4.8,0.,4.8
1981-08-26 07:25:24.800 ,4,0,0.,4.8,1152.,4.8,0.,4.8,0.,4.8
1981-08-26 07:25:29.600 ,4,0,0.,4.8,1120.,4.8,0.,4.8,0.,4.8
1981-08-26 07:25:34.400 ,4,0,0.,4.8,1088.,4.8,0.,4.8,0.,4.8
1981-08-26 07:25:39.200 ,3,0,0.,4.8,1120.,4.8,0.,4.8,0.,4.8
1981-08-26 07:25:44.000 ,3,0,0.,4.8,1008.,4.8,0.,4.8,0.,4.8
1981-08-26 07:25:48.800 ,3,0,0.,4.8,752.,4.8,0.,4.8,0.,4.8
1981-08-26 07:25:53.600 ,3,0,0.,4.8,704.,4.8,0.,4.8,0.,4.8
1981-08-26 07:25:58.400 ,3,0,0.,4.8,672.,4.8,0.,4.8,0.,4.8
1981-08-26 07:26:03.200 ,2,0,0.,4.8,672.,4.8,0.,4.8,0.,4.8
1981-08-26 07:26:08.000 ,2,0,0.,4.8,976.,4.8,0.,4.8,0.,4.8
1981-08-26 07:26:12.800 ,2,0,0.,4.8,1152.,4.8,0.,4.8,0.,4.8
1981-08-26 07:26:17.600 ,2,0,0.,4.8,1184.,4.8,0.,4.8,0.,4.8
1981-08-26 07:26:22.400 ,2,0,0.,4.8,1152.,4.8,0.,4.8,0.,4.8
1981-08-26 07:26:27.200 ,1,0,0.,4.8,1152.,4.8,0.,4.8,0.,4.8
1981-08-26 07:26:32.000 ,1,0,0.,4.8,976.,4.8,0.,4.8,0.,4.8
1981-08-26 07:26:36.800 ,1,0,0.,4.8,976.,4.8,0.,4.8,0.,4.8
1981-08-26 07:26:41.600 ,1,0,0.,4.8,992.,4.8,0.,4.8,0.,4.8
1981-08-26 07:26:46.400 ,1,0,0.,4.8,992.,4.8,0.,4.8,0.,4.8
1981-08-26 07:26:51.200 ,0,0,0.,4.8,944.,4.8,0.,4.8,0.,4.8
1981-08-26 07:26:56.000 ,0,0,0.,4.8,992.,4.8,0.,4.8,0.,4.8
1981-08-26 07:27:00.800 ,0,0,0.,4.8,1024.,4.8,0.,4.8,0.,4.8
1981-08-26 07:27:05.600 ,0,0,0.,4.8,992.,4.8,0.,4.8,0.,4.8
1981-08-26 07:27:10.400 ,0,0,0.,4.8,1088.,4.8,0.,4.8,0.,4.8
1981-08-26 07:27:15.200 ,0,0,0.,4.8,1088.,4.8,0.,4.8,0.,4.8
1981-08-26 07:27:20.000 ,0,0,0.,4.8,1056.,4.8,0.,4.8,0.,4.8
1981-08-26 07:27:24.800 ,0,0,0.,4.8,1088.,4.8,0.,4.8,0.,4.8
1981-08-26 07:27:29.600 ,0,0,0.,4.8,1120.,4.8,0.,4.8,0.,4.8
1981-08-26 07:27:34.400 ,0,0,0.,4.8,1056.,4.8,0.,4.8,0.,4.8
1981-08-26 07:27:39.200 ,1,0,0.,4.8,1024.,4.8,0.,4.8,0.,4.8
1981-08-26 07:27:44.000 ,1,0,0.,4.8,944.,4.8,0.,4.8,0.,4.8
1981-08-26 07:27:48.800 ,1,0,0.,4.8,944.,4.8,0.,4.8,0.,4.8
1981-08-26 07:27:53.600 ,1,0,0.,4.8,976.,4.8,0.,4.8,0.,4.8
1981-08-26 07:27:58.400 ,1,0,0.,4.8,912.,4.8,0.,4.8,0.,4.8
1981-08-26 07:28:03.200 ,2,0,0.,4.8,1024.,4.8,0.,4.8,0.,4.8
1981-08-26 07:28:08.000 ,2,0,0.,4.8,1024.,4.8,0.,4.8,0.,4.8
1981-08-26 07:28:12.800 ,2,0,0.,4.8,1152.,4.8,0.,4.8,0.,4.8
1981-08-26 07:28:17.600 ,2,0,0.,4.8,1088.,4.8,0.,4.8,0.,4.8
1981-08-26 07:28:22.400 ,2,0,0.,4.8,1024.,4.8,0.,4.8,0.,4.8
1981-08-26 07:28:27.200 ,3,0,0.,4.8,1088.,4.8,0.,4.8,0.,4.8
1981-08-26 07:28:32.000 ,3,0,0.,4.8,944.,4.8,0.,4.8,0.,4.8
1981-08-26 07:28:36.800 ,3,0,0.,4.8,704.,4.8,0.,4.8,0.,4.8
1981-08-26 07:28:41.600 ,3,0,0.,4.8,688.,4.8,0.,4.8,0.,4.8
1981-08-26 07:28:46.400 ,3,0,0.,4.8,720.,4.8,0.,4.8,0.,4.8
1981-08-26 07:28:51.200 ,4,0,0.,4.8,672.,4.8,0.,4.8,0.,4.8
1981-08-26 07:28:56.000 ,4,0,0.,4.8,768.,4.8,0.,4.8,0.,4.8
1981-08-26 07:29:00.800 ,4,0,0.,4.8,912.,4.8,0.,4.8,0.,4.8
1981-08-26 07:29:05.600 ,4,0,0.,4.8,896.,4.8,0.,4.8,0.,4.8
1981-08-26 07:29:10.400 ,4,0,0.,4.8,928.,4.8,0.,4.8,0.,4.8
1981-08-26 07:29:15.200 ,5,0,0.,4.8,880.,4.8,0.,4.8,0.,4.8
1981-08-26 07:29:20.000 ,5,0,0.,4.8,880.,4.8,0.,4.8,0.,4.8
1981-08-26 07:29:24.800 ,5,0,0.,4.8,864.,4.8,0.,4.8,0.,4.8
1981-08-26 07:29:29.600 ,5,0,0.,4.8,848.,4.8,0.,4.8,0.,4.8
1981-08-26 07:29:34.400 ,5,0,0.,4.8,864.,4.8,0.,4.8,0.,4.8
1981-08-26 07:29:39.200 ,6,0,0.,4.8,928.,4.8,0.,4.8,0.,4.8
1981-08-26 07:29:44.000 ,6,0,0.,4.8,992.,4.8,0.,4.8,0.,4.8
1981-08-26 07:29:48.800 ,6,0,0.,4.8,1024.,4.8,0.,4.8,0.,4.8
1981-08-26 07:29:53.600 ,6,0,0.,4.8,992.,4.8,0.,4.8,0.,4.8
1981-08-26 07:29:58.400 ,6,0,0.,4.8,1056.,4.8,0.,4.8,0.,4.8
1981-08-26 07:30:03.200 ,7,0,0.,4.8,1056.,4.8,0.,4.8,0.,4.8
1981-08-26 07:30:08.000 ,7,0,0.,4.8,1056.,4.8,0.,4.8,0.,4.8
1981-08-26 07:30:12.800 ,7,0,0.,4.8,1024.,4.8,0.,4.8,0.,4.8
1981-08-26 07:30:17.600 ,7,0,0.,4.8,1088.,4.8,0.,4.8,0.,4.8
1981-08-26 07:30:22.400 ,7,0,0.,4.8,1024.,4.8,0.,4.8,0.,4.8
1981-08-26 07:30:27.200 ,7,0,0.,4.8,1120.,4.8,0.,4.8,0.,4.8
1981-08-26 07:30:32.000 ,7,0,0.,4.8,992.,4.8,0.,4.8,0.,4.8
1981-08-26 07:30:36.800 ,7,0,0.,4.8,1024.,4.8,0.,4.8,0.,4.8
1981-08-26 07:30:41.600 ,7,0,0.,4.8,928.,4.8,0.,4.8,0.,4.8
1981-08-26 07:30:46.400 ,7,0,0.,4.8,880.,4.8,0.,4.8,0.,4.8
1981-08-26 07:30:51.200 ,6,0,0.,4.8,960.,4.8,0.,4.8,0.,4.8
1981-08-26 07:30:56.000 ,6,0,0.,4.8,1008.,4.8,0.,4.8,0.,4.8
1981-08-26 07:31:00.800 ,6,0,0.,4.8,976.,4.8,0.,4.8,0.,4.8
1981-08-26 07:31:05.600 ,6,0,0.,4.8,1024.,4.8,0.,4.8,0.,4.8
1981-08-26 07:31:10.400 ,6,0,0.,4.8,1024.,4.8,0.,4.8,0.,4.8
1981-08-26 07:31:15.200 ,5,0,0.,4.8,1008.,4.8,0.,4.8,0.,4.8
1981-08-26 07:31:20.000 ,5,0,0.,4.8,912.,4.8,0.,4.8,0.,4.8
1981-08-26 07:31:24.800 ,5,0,0.,4.8,800.,4.8,0.,4.8,0.,4.8
1981-08-26 07:31:29.600 ,5,0,0.,4.8,784.,4.8,0.,4.8,0.,4.8
1981-08-26 07:31:34.400 ,5,0,0.,4.8,832.,4.8,0.,4.8,0.,4.8
1981-08-26 07:31:39.200 ,4,0,0.,4.8,848.,4.8,0.,4.8,0.,4.8
1981-08-26 07:31:44.000 ,4,0,0.,4.8,784.,4.8,0.,4.8,0.,4.8
1981-08-26 07:31:48.800 ,4,0,0.,4.8,784.,4.8,0.,4.8,0.,4.8
1981-08-26 07:31:53.600 ,4,0,0.,4.8,768.,4.8,0.,4.8,0.,4.8
1981-08-26 07:31:58.400 ,4,0,0.,4.8,816.,4.8,0.,4.8,0.,4.8
1981-08-26 07:32:03.200 ,3,0,0.,4.8,704.,4.8,0.,4.8,0.,4.8
1981-08-26 07:32:08.000 ,3,0,0.,4.8,672.,4.8,0.,4.8,0.,4.8
1981-08-26 07:32:12.800 ,3,0,0.,4.8,560.,4.8,0.,4.8,0.,4.8
1981-08-26 07:32:17.600 ,3,0,0.,4.8,576.,4.8,0.,4.8,0.,4.8
1981-08-26 07:32:22.400 ,3,0,0.,4.8,544.,4.8,0.,4.8,0.,4.8
1981-08-26 07:32:27.200 ,2,0,0.,4.8,560.,4.8,0.,4.8,0.,4.8
1981-08-26 07:32:32.000 ,2,0,0.,4.8,704.,4.8,0.,4.8,0.,4.8
1981-08-26 07:32:36.800 ,2,0,0.,4.8,912.,4.8,0.,4.8,0.,4.8
1981-08-26 07:32:41.600 ,2,0,0.,4.8,976.,4.8,0.,4.8,0.,4.8
1981-08-26 07:32:46.400 ,2,0,0.,4.8,864.,4.8,0.,4.8,0.,4.8
1981-08-26 07:32:51.200 ,1,0,0.,4.8,896.,4.8,0.,4.8,0.,4.8
1981-08-26 07:32:56.000 ,1,0,0.,4.8,800.,4.8,0.,4.8,0.,4.8
1981-08-26 07:33:00.800 ,1,0,0.,4.8,768.,4.8,0.,4.8,0.,4.8
1981-08-26 07:33:05.600 ,1,0,0.,4.8,784.,4.8,0.,4.8,0.,4.8
1981-08-26 07:33:10.400 ,1,0,0.,4.8,784.,4.8,0.,4.8,0.,4.8
1981-08-26 07:33:15.200 ,0,0,0.,4.8,768.,4.8,0.,4.8,0.,4.8
1981-08-26 07:33:20.000 ,0,0,0.,4.8,768.,4.8,0.,4.8,0.,4.8
1981-08-26 07:33:24.800 ,0,0,0.,4.8,768.,4.8,0.,4.8,0.,4.8
1981-08-26 07:33:29.600 ,0,0,0.,4.8,784.,4.8,0.,4.8,0.,4.8